Location: Unspecified
(33.7438°N, 118.3804°W)
Time: 01:59:27
(UTC+00:00)

Daily predictions for brighter satellites

Satellite Brightness Start Highest point End
(mag) Time Altitude Azimuth Time Altitude Azimuth Time Altitude Azimuth
Cosmos 44 Rocket 3.6 02:03:55 10° NNW 02:08:51 51° ENE 02:13:50 10° SE
COSMO-SKYMED 1 3.4 02:13:00 10° N 02:17:14 55° WNW 02:21:28 10° SSW
Okean 3 3.4 02:13:49 10° N 02:17:59 70° E 02:22:09 10° SSE
Sich 1 Rocket 3.7 02:14:07 10° S 02:18:30 53° E 02:22:51 10° NNE
FENGYUN 3A 3.8 02:15:42 10° SSE 02:21:05 86° WSW 02:26:32 10° NNW
ALOS 2.5 02:16:51 10° S 02:21:31 77° W 02:26:11 10° NNW
Cosmos 1048 Rocket 4.1 02:16:19 10° SSW 02:21:39 90° E 02:26:57 10° NNE
MONITOR-E 4.3 02:19:25 10° S 02:22:25 76° W 02:25:26 10° NNW
Cosmos 1452 Rocket 3.5 02:17:57 10° NNW 02:23:13 90° WNW 02:28:28 10° SSE
FALCON 9 R/B 3.8 02:17:52 10° W 02:24:01 87° N 02:46:37 13° E
Tsikada Rocket 4.4 02:19:44 10° SSE 02:25:40 42° E 02:31:38 10° NNE
Gbstr 26 Del rocket 2.8 02:22:11 10° SW 02:25:56 72° NW 02:29:43 10° NE
Cosmos 44 3.6 02:21:07 10° NNW 02:26:15 82° WSW 02:31:34 10° SSE
Okean 2 Rocket 3.8 02:25:52 10° SSE 02:29:40 30° E 02:33:31 10° NNE
ERS-2 2.8 02:28:15 10° SE 02:31:33 33° ENE 02:34:54 10° N
FengYun 1-2 T 4.3 02:28:05 10° SSE 02:33:25 52° ENE 02:38:43 10° N
Cosmos 921 Rocket 3.3 02:29:51 10° N 02:34:13 48° ENE 02:38:30 10° SSE
SPOT 3 Rocket 3.5 02:31:03 10° SSE 02:36:15 86° ENE 02:41:29 10° NNW
Cosmos 1674 Rocket 4.4 02:32:02 10° NNW 02:36:15 53° W 02:40:26 10° S
ARGOS Delta rocket 4.4 02:34:13 10° NNE 02:38:22 31° E 02:42:20 10° SSE
Cosmos 1464 Rocket 3.9 02:33:36 10° N 02:39:45 85° E 02:45:54 10° S
Cosmos 2237 Rocket 4.5 02:35:31 10° NW 02:40:12 28° WSW 02:44:52 10° SSW
H-2A R/B 2.7 02:36:49 10° SSE 02:40:43 75° ENE 02:44:36 10° N
Cosmos 1420 Rocket 4.2 02:35:26 10° NNW 02:40:44 78° WSW 02:46:02 10° S
Cosmos 1908 Rocket 4.4 02:38:16 10° SSW 02:42:39 56° W 02:47:02 10° N
Centaur D-1A AC-32 4.0 02:38:35 10° WSW 02:42:57 51° SSE 02:54:57 16° E
SeaSat 1 3.8 02:44:27 18° ENE 02:45:44 19° NE 02:49:11 10° N
SL-16 R/B 2.6 02:41:13 10° NNW 02:46:51 68° WSW 02:52:26 10° S
GPS 2-05 Rocket1 2.5 02:46:48 10° WSW 02:49:59 79° SSE 02:51:17 32° E
COSMOS 2455 2.9 02:46:44 10° S 02:52:37 59° ESE 02:58:32 10° NE
SJ-6B 3.1 02:49:21 10° SE 02:52:52 39° ENE 02:56:29 10° N
Cosmos 2346 Rocket 4.4 02:56:22 10° S 03:02:29 65° E 03:08:34 10° NNE
HJ-1C 3.3 02:59:21 10° SSE 03:02:44 66° ENE 03:06:08 10° N
CZ-2D R/B 3.4 03:02:32 18° SE 03:05:07 48° ENE 03:08:53 10° N
USA 215 3.2 02:59:05 10° NE 03:05:37 77° SE 03:12:08 10° SW
Cosmos 1603 3.8 03:00:20 10° N 03:05:51 53° ENE 03:09:51 18° SE
Envisat 3.2 03:01:34 10° SE 03:06:24 47° ENE 03:11:16 10° N
BREEZE-M DEB (TANK) 3.1 03:04:11 10° SW 03:06:54 75° NW 03:13:44 10° NE
Sakura Rocket 4.2 03:03:10 10° WSW 03:08:14 54° S 03:11:49 27° ESE
ATLAS CENTAUR R/B 3.4 03:09:31 10° N 03:10:57 15° NNE 03:10:57 15° NNE
Okean 1 4.4 03:08:57 10° NNW 03:12:46 46° W 03:16:34 10° SSW
Meteor 1-4 Rocket 2.6 03:09:56 10° SSW 03:13:25 75° W 03:16:59 10° N
Cosmos 1975 Rocket 3.2 03:08:58 10° N 03:13:26 78° W 03:17:53 10° S
Cosmos 2263 Rocket 2.1 03:08:18 10° S 03:13:44 61° ESE 03:19:14 10° NNE
Cosmos 494 Rocket 4.0 03:09:50 10° SSW 03:15:03 80° WNW 03:20:15 10° NNE
Cosmos 2034 Rocket 4.4 03:11:04 10° NNW 03:17:22 66° W 03:23:37 10° S
Meteor 1-13 Rocket 4.0 03:12:20 10° N 03:17:50 70° E 03:23:19 10° SSE
FREGAT/IRIS 4.4 03:17:49 10° SSW 03:20:31 32° W 03:23:14 10° NNW
Tiangong 2 4.1 03:25:19 10° WSW 03:26:32 12° SW 03:27:43 10° SSW
Cosmos 1110 Rocket 3.9 03:21:31 10° NNW 03:26:50 77° ENE 03:29:49 27° SSE
Cosmos 1634 Rocket 3.9 03:21:43 10° N 03:27:46 57° E 03:32:08 19° SSE
Resurs 01 Rocket 2.8 03:30:26 29° NNE 03:30:26 29° NNE 03:32:50 10° N
Thor Agena Rocket 3.8 03:24:09 10° N 03:29:11 67° WNW 03:34:10 10° SSW
OAO 2 Rocket 3.1 03:32:36 10° W 03:37:34 82° N 03:37:55 76° ENE
Cosmos 2142 Rocket 4.4 03:32:44 10° N 03:38:59 60° E 03:40:35 46° SE
Cosmos 1536 3.0 03:36:18 10° SSW 03:40:19 70° W 03:41:08 52° NNW
Lacrosse 5 rocket 2.8 03:40:36 10° SW 03:42:18 25° SSW 03:42:18 25° SSW
Meteor 1-5 Rocket 4.3 03:39:13 10° S 03:45:04 82° W 03:51:04 10° N
OAO 1 4.4 03:41:51 10° W 03:47:23 83° SSW 03:47:42 78° SE
Meteor 2-4 Rocket 3.8 03:41:44 10° NNW 03:47:28 76° W 03:52:23 13° S
Cosmos 1331 Rocket 4.4 03:51:24 10° NNW 03:56:38 62° WSW 03:58:09 43° SSW
Geosat 4.3 04:00:58 55° NNW 04:01:44 64° WNW 04:06:41 10° SW
CZ-4C R/B 3.0 03:55:21 10° NNW 04:02:25 56° NE 04:02:25 56° NE
Cosmos 1943 3.4 04:04:31 10° NNW 04:09:25 66° NW 04:09:25 66° NW
SeaSat 1 3.7 04:24:15 38° WNW 04:24:15 38° WNW 04:27:39 10° NW
USA 215 3.7 11:27:12 10° SE 11:32:24 55° E 11:32:24 55° E
CZ-3 R/B 3.5 11:35:26 53° WSW 11:41:55 73° S 11:50:45 10° ESE
